Terug naar catalogus

TITAN 3C TRANSTAGE DEB

LostHEO
NORAD 27722·DEBRIS·🇺🇸 United States

Gelanceerd Dec 21, 1965 vanaf Cape Canaveral Space Force Station

Loading…

Volgende Passages (komende 24 uur)

TLE

VerouderdSource: Space-Track

Epoch: Oct 24, 2025, 09:16 UTC

1 27722U 65108BC  25297.38678725 -.00000060  00000-0  00000-0 0  9998
2 27722  26.5884 192.6689 6643158 212.5192 352.3836  2.54244475216636

Volg TITAN 3C TRANSTAGE DEB in realtime met AllMySat

Download on the App Store